THOR ABLESTAR DEB, 178

Orbit data source: Space-Track

THOR ABLESTAR DEB, 178 is space debris in LEO originally from a launch on Thu, 29 Jun 1961 UTC launched from the Air Force Eastern Test Range (AFETR). Debris objects in space refer to the collection of defunct objects orbiting the Earth. Examples of debris include non-operational satellites, rocket bodies, and fragments generated from explosions, collisions, or faulty payload assembly.

Loading next visibility...
Identifier
178, 1961-015BC
Orbit
LEO
Country
Flag of USUS
Related business
Manufacturer
Unknown
Mission
Spacecraft
Bus & Motor
Unknown
Mass
Unknown
Launch date (UTC)
1961-06-29 (65 years ago)
Launch vehicle
Unknown
Launch site
Air Force Eastern Test Range (AFETR)
Object type
Payload
Rocket body
Debris
Shape & HBR
Unknown shape, 0.1 m
Radar Cross Section
Small (<0.1 m²)

Expand to show TLE details & history
Last TLE update: 15 hours ago

TLE from 15 hours ago
0 THOR ABLESTAR DEB
1   178U 61015BC  26129.33851152  .00000051  00000-0  95394-4 0  9997
2   178  66.8639  95.5993 0076972  18.9385 341.4529 13.93055743291832
Epoch: 2026-05-09T08:07Z
TLE epoch observation values (Epoch: 2026-05-09T08:07:27.395Z)
Latitude
-0.00008°
Longitude
106.57775°
Altitude
866.82 km
Speed
7.446 km/s
True Right ascension
06h 22m 23s
True Declination
0° 00' 00"
Sunlit
Object was in daylight at epoch
Visualization orbit readout
Latitude
Unknown
Longitude
Unknown
Altitude
Unknown
Speed
Unknown
Apparent Right ascension
Unknown
Apparent Declination
Unknown
Sunlit
N/A
Visualization observer readout
Local Sidereal Time
06:53:13
Azimuth
Unknown
Elevation
Unknown
Doppler factor
Unknown
Orbital elements
Apogee altitude
972.473 km
Perigee altitude
860.179 km
Semi-major axis
7,294.463 km
Eccentricity
0.0077
Inclination
66.8639°
RAAN
95.5993°
Arg. of periapsis
18.9385°
True anomaly
341.16976°
Mean anomaly
341.4529°
Eccentric anomaly
341.31159°
Mean motion
3.4838 °/min
Orbital period
103.34 mins
BSTAR
0.000095394
Loading maneuver chart data...
Computing Atmospheric mass density...

Documentation

Showing up to 5 results
|